Orbital Elements at Epoch 2459200.5 (2020-Dec-17.0) TDB
Reference: JPL 18 (heliocentric ecliptic J2000)
Element | Value | Uncertainty (1-sigma) | Units |
e | .08771959008124147 | 5.2987e-08 | |
a | 2.541805228800172 | 1.7276e-08 | au |
q | 2.318839116063465 | 1.3298e-07 | au |
i | 2.933444110668265 | 4.3592e-06 | deg |
node | 115.4486712681025 | 0.00011077 | deg |
peri | 100.8800500246406 | 0.00011342 | deg |
M | 330.7563964301439 | 2.5198e-05 | deg |
tp | 2459320.737577359136 (2021-Apr-16.23757736) | 0.00010377 | TDB |
period | 1480.170791738779 4.05 | 1.509e-05 4.131e-08 | d yr |
n | .2432151762548311 | 2.4796e-09 | deg/d |
Q | 2.76477134153688 | 1.8791e-08 | au |
|
| | Orbit Determination Parameters
Additional Information
|